Year,Month,Day,Hour,Minute,Value (Times are PST for temperature in C)
2016,02,25,00,00,4.00
2016,02,25,00,01,4.00
2016,02,25,00,02,3.90
2016,02,25,00,03,3.90
2016,02,25,00,04,3.90
2016,02,25,00,05,3.90
2016,02,25,00,06,3.80
2016,02,25,00,07,3.80
2016,02,25,00,08,3.80
2016,02,25,00,09,3.70
2016,02,25,00,10,3.70
2016,02,25,00,11,3.70
2016,02,25,00,12,3.70
2016,02,25,00,13,3.60
2016,02,25,00,14,3.60
2016,02,25,00,15,3.60
2016,02,25,00,16,3.60
2016,02,25,00,17,3.60
2016,02,25,00,18,3.50
2016,02,25,00,19,3.50
2016,02,25,00,20,3.50
2016,02,25,00,21,3.50
2016,02,25,00,22,3.50
2016,02,25,00,23,3.50
2016,02,25,00,24,3.50
2016,02,25,00,25,3.50
2016,02,25,00,26,3.50
2016,02,25,00,27,3.50
2016,02,25,00,28,3.50
2016,02,25,00,29,3.50
2016,02,25,00,30,3.50
2016,02,25,00,31,3.50
2016,02,25,00,32,3.50
2016,02,25,00,33,3.50
2016,02,25,00,34,3.50
2016,02,25,00,35,3.40
2016,02,25,00,36,3.40
2016,02,25,00,37,3.40
2016,02,25,00,38,3.40
2016,02,25,00,39,3.40
2016,02,25,00,40,3.40
2016,02,25,00,41,3.40
2016,02,25,00,42,3.40
2016,02,25,00,43,3.40
2016,02,25,00,44,3.40
2016,02,25,00,45,3.50
2016,02,25,00,46,3.50
2016,02,25,00,47,3.50
2016,02,25,00,48,3.50
2016,02,25,00,49,3.50
2016,02,25,00,50,3.50
2016,02,25,00,51,3.50
2016,02,25,00,52,3.40
2016,02,25,00,53,3.40
2016,02,25,00,54,3.30
2016,02,25,00,55,3.30
2016,02,25,00,56,3.30
2016,02,25,00,57,3.30
2016,02,25,00,58,3.30
2016,02,25,00,59,3.30
2016,02,25,01,00,3.40
2016,02,25,01,01,3.40
2016,02,25,01,02,3.40
2016,02,25,01,03,3.40
2016,02,25,01,04,3.40
2016,02,25,01,05,3.40
2016,02,25,01,06,3.40
2016,02,25,01,07,3.40
2016,02,25,01,08,3.40
2016,02,25,01,09,3.40
2016,02,25,01,10,3.40
2016,02,25,01,11,3.30
2016,02,25,01,12,3.30
2016,02,25,01,13,3.30
2016,02,25,01,14,3.30
2016,02,25,01,15,3.30
2016,02,25,01,16,3.30
2016,02,25,01,17,3.30
2016,02,25,01,18,3.30
2016,02,25,01,19,3.40
2016,02,25,01,20,3.40
2016,02,25,01,21,3.40
2016,02,25,01,22,3.50
2016,02,25,01,23,3.50
2016,02,25,01,24,3.50
2016,02,25,01,25,3.50
2016,02,25,01,26,3.50
2016,02,25,01,27,3.50
2016,02,25,01,28,3.50
2016,02,25,01,29,3.50
2016,02,25,01,30,3.50
2016,02,25,01,31,3.40
2016,02,25,01,32,3.40
2016,02,25,01,33,3.40
2016,02,25,01,34,3.40
2016,02,25,01,35,3.40
2016,02,25,01,36,3.30
2016,02,25,01,37,3.30
2016,02,25,01,38,3.30
2016,02,25,01,39,3.20
2016,02,25,01,40,3.20
2016,02,25,01,41,3.20
2016,02,25,01,42,3.20
2016,02,25,01,43,3.20
2016,02,25,01,44,3.10
2016,02,25,01,45,3.10
2016,02,25,01,46,3.10
2016,02,25,01,47,3.10
2016,02,25,01,48,3.10
2016,02,25,01,49,3.10
2016,02,25,01,50,3.00
2016,02,25,01,51,2.90
2016,02,25,01,52,2.90
2016,02,25,01,53,2.80
2016,02,25,01,54,2.80
2016,02,25,01,55,2.80
2016,02,25,01,56,2.80
2016,02,25,01,57,2.80
2016,02,25,01,58,2.80
2016,02,25,01,59,2.80
2016,02,25,02,00,2.80
2016,02,25,02,01,2.90
2016,02,25,02,02,2.90
2016,02,25,02,03,2.90
2016,02,25,02,04,2.90
2016,02,25,02,05,2.90
2016,02,25,02,06,3.00
2016,02,25,02,07,3.00
2016,02,25,02,08,3.10
2016,02,25,02,09,3.10
2016,02,25,02,10,3.10
2016,02,25,02,11,3.10
2016,02,25,02,12,3.10
2016,02,25,02,13,3.10
2016,02,25,02,14,3.10
2016,02,25,02,15,3.10
2016,02,25,02,16,3.20
2016,02,25,02,17,3.20
2016,02,25,02,18,3.20
2016,02,25,02,19,3.20
2016,02,25,02,20,3.20
2016,02,25,02,21,3.10
2016,02,25,02,22,3.10
2016,02,25,02,23,3.00
2016,02,25,02,24,3.00
2016,02,25,02,25,2.90
2016,02,25,02,26,2.90
2016,02,25,02,27,2.90
2016,02,25,02,28,2.90
2016,02,25,02,29,2.90
2016,02,25,02,30,2.90
2016,02,25,02,31,2.80
2016,02,25,02,32,2.80
2016,02,25,02,33,2.80
2016,02,25,02,34,2.80
2016,02,25,02,35,2.80
2016,02,25,02,36,2.90
2016,02,25,02,37,2.90
2016,02,25,02,38,2.90
2016,02,25,02,39,2.90
2016,02,25,02,40,2.90
2016,02,25,02,41,2.90
2016,02,25,02,42,2.80
2016,02,25,02,43,2.80
2016,02,25,02,44,2.80
2016,02,25,02,45,2.80
2016,02,25,02,46,2.80
2016,02,25,02,47,2.70
2016,02,25,02,48,2.70
2016,02,25,02,49,2.70
2016,02,25,02,50,2.70
2016,02,25,02,51,2.60
2016,02,25,02,52,2.60
2016,02,25,02,53,2.60
2016,02,25,02,54,2.60
2016,02,25,02,55,2.60
2016,02,25,02,56,2.60
2016,02,25,02,57,2.60
2016,02,25,02,58,2.60
2016,02,25,02,59,2.70
2016,02,25,03,00,2.70
2016,02,25,03,01,2.80
2016,02,25,03,02,2.80
2016,02,25,03,03,2.90
2016,02,25,03,04,2.90
2016,02,25,03,05,3.00
2016,02,25,03,06,3.00
2016,02,25,03,07,3.00
2016,02,25,03,08,3.00
2016,02,25,03,09,3.00
2016,02,25,03,10,3.00
2016,02,25,03,11,3.10
2016,02,25,03,12,3.10
2016,02,25,03,13,3.10
2016,02,25,03,14,3.10
2016,02,25,03,15,3.10
2016,02,25,03,16,3.10
2016,02,25,03,17,3.10
2016,02,25,03,18,3.00
2016,02,25,03,19,2.90
2016,02,25,03,20,2.90
2016,02,25,03,21,2.80
2016,02,25,03,22,2.80
2016,02,25,03,23,2.70
2016,02,25,03,24,2.70
2016,02,25,03,25,2.70
2016,02,25,03,26,2.70
2016,02,25,03,27,2.70
2016,02,25,03,28,2.70
2016,02,25,03,29,2.70
2016,02,25,03,30,2.70
2016,02,25,03,31,2.70
2016,02,25,03,32,2.70
2016,02,25,03,33,2.70
2016,02,25,03,34,2.70
2016,02,25,03,35,2.70
2016,02,25,03,36,2.70
2016,02,25,03,37,2.70
2016,02,25,03,38,2.70
2016,02,25,03,39,2.70
2016,02,25,03,40,2.70
2016,02,25,03,41,2.70
2016,02,25,03,42,2.70
2016,02,25,03,43,2.70
2016,02,25,03,44,2.70
2016,02,25,03,45,2.70
2016,02,25,03,46,2.80
2016,02,25,03,47,2.80
2016,02,25,03,48,2.80
2016,02,25,03,49,2.80
2016,02,25,03,50,2.80
2016,02,25,03,51,2.70
2016,02,25,03,52,2.70
2016,02,25,03,53,2.70
2016,02,25,03,54,2.70
2016,02,25,03,55,2.70
2016,02,25,03,56,2.70
2016,02,25,03,57,2.70
2016,02,25,03,58,2.70
2016,02,25,03,59,2.60
2016,02,25,04,00,2.60
2016,02,25,04,01,2.60
2016,02,25,04,02,2.60
2016,02,25,04,03,2.60
2016,02,25,04,04,2.60
2016,02,25,04,05,2.60
2016,02,25,04,06,2.60
2016,02,25,04,07,2.60
2016,02,25,04,08,2.60
2016,02,25,04,09,2.60
2016,02,25,04,10,2.60
2016,02,25,04,11,2.60
2016,02,25,04,12,2.60
2016,02,25,04,13,2.60
2016,02,25,04,14,2.60
2016,02,25,04,15,2.60
2016,02,25,04,16,2.60
2016,02,25,04,17,2.60
2016,02,25,04,18,2.60
2016,02,25,04,19,2.50
2016,02,25,04,20,2.50
2016,02,25,04,21,2.50
2016,02,25,04,22,2.60
2016,02,25,04,23,2.60
2016,02,25,04,24,2.60
2016,02,25,04,25,2.60
2016,02,25,04,26,2.70
2016,02,25,04,27,2.70
2016,02,25,04,28,2.70
2016,02,25,04,29,2.80
2016,02,25,04,30,2.80
2016,02,25,04,31,2.80
2016,02,25,04,32,2.80
2016,02,25,04,33,2.70
2016,02,25,04,34,2.70
2016,02,25,04,35,2.70
2016,02,25,04,36,2.60
2016,02,25,04,37,2.60
2016,02,25,04,38,2.60
2016,02,25,04,39,2.50
2016,02,25,04,40,2.50
2016,02,25,04,41,2.50
2016,02,25,04,42,2.40
2016,02,25,04,43,2.40
2016,02,25,04,44,2.40
2016,02,25,04,45,2.40
2016,02,25,04,46,2.40
2016,02,25,04,47,2.40
2016,02,25,04,48,2.30
2016,02,25,04,49,2.40
2016,02,25,04,50,2.40
2016,02,25,04,51,2.40
2016,02,25,04,52,2.40
2016,02,25,04,53,2.40
2016,02,25,04,54,2.40
2016,02,25,04,55,2.40
2016,02,25,04,56,2.30
2016,02,25,04,57,2.30
2016,02,25,04,58,2.30
2016,02,25,04,59,2.30
2016,02,25,05,00,2.30
2016,02,25,05,01,2.30
2016,02,25,05,02,2.30
2016,02,25,05,03,2.40
2016,02,25,05,04,2.40
2016,02,25,05,05,2.40
2016,02,25,05,06,2.40
2016,02,25,05,07,2.40
2016,02,25,05,08,2.40
2016,02,25,05,09,2.40
2016,02,25,05,10,2.50
2016,02,25,05,11,2.50
2016,02,25,05,12,2.50
2016,02,25,05,13,2.50
2016,02,25,05,14,2.50
2016,02,25,05,15,2.50
2016,02,25,05,16,2.50
2016,02,25,05,17,2.50
2016,02,25,05,18,2.40
2016,02,25,05,19,2.40
2016,02,25,05,20,2.40
2016,02,25,05,21,2.40
2016,02,25,05,22,2.40
2016,02,25,05,23,2.30
2016,02,25,05,24,2.30
2016,02,25,05,25,2.30
2016,02,25,05,26,2.30
2016,02,25,05,27,2.30
2016,02,25,05,28,2.30
2016,02,25,05,29,2.30
2016,02,25,05,30,2.30
2016,02,25,05,31,2.30
2016,02,25,05,32,2.30
2016,02,25,05,33,2.30
2016,02,25,05,34,2.30
2016,02,25,05,35,2.40
2016,02,25,05,36,2.40
2016,02,25,05,37,2.40
2016,02,25,05,38,2.40
2016,02,25,05,39,2.40
2016,02,25,05,40,2.40
2016,02,25,05,41,2.40
2016,02,25,05,42,2.40
2016,02,25,05,43,2.30
2016,02,25,05,44,2.30
2016,02,25,05,45,2.30
2016,02,25,05,46,2.30
2016,02,25,05,47,2.30
2016,02,25,05,48,2.30
2016,02,25,05,49,2.30
2016,02,25,05,50,2.30
2016,02,25,05,51,2.30
2016,02,25,05,52,2.30
2016,02,25,05,53,2.30
2016,02,25,05,54,2.30
2016,02,25,05,55,2.20
2016,02,25,05,56,2.20
2016,02,25,05,57,2.20
2016,02,25,05,58,2.10
2016,02,25,05,59,2.10
2016,02,25,06,00,2.10
2016,02,25,06,01,2.10
2016,02,25,06,02,2.20
2016,02,25,06,03,2.40
2016,02,25,06,04,2.40
2016,02,25,06,05,2.50
2016,02,25,06,06,2.60
2016,02,25,06,07,2.60
2016,02,25,06,08,2.60
2016,02,25,06,09,2.50
2016,02,25,06,10,2.50
2016,02,25,06,11,2.50
2016,02,25,06,12,2.40
2016,02,25,06,13,2.40
2016,02,25,06,14,2.40
2016,02,25,06,15,2.40
2016,02,25,06,16,2.30
2016,02,25,06,17,2.30
2016,02,25,06,18,2.30
2016,02,25,06,19,2.30
2016,02,25,06,20,2.30
2016,02,25,06,21,2.30
2016,02,25,06,22,2.30
2016,02,25,06,23,2.40
2016,02,25,06,24,2.50
2016,02,25,06,25,2.50
2016,02,25,06,26,2.60
2016,02,25,06,27,2.60
2016,02,25,06,28,2.60
2016,02,25,06,29,2.60
2016,02,25,06,30,2.60
2016,02,25,06,31,2.60
2016,02,25,06,32,2.60
2016,02,25,06,33,2.50
2016,02,25,06,34,2.40
2016,02,25,06,35,2.40
2016,02,25,06,36,2.50
2016,02,25,06,37,2.50
2016,02,25,06,38,2.60
2016,02,25,06,39,2.60
2016,02,25,06,40,2.60
2016,02,25,06,41,2.60
2016,02,25,06,42,2.60
2016,02,25,06,43,2.70
2016,02,25,06,44,2.70
2016,02,25,06,45,2.60
2016,02,25,06,46,2.60
2016,02,25,06,47,2.50
2016,02,25,06,48,2.50
2016,02,25,06,49,2.50
2016,02,25,06,50,2.50
2016,02,25,06,51,2.40
2016,02,25,06,52,2.30
2016,02,25,06,53,2.30
2016,02,25,06,54,2.30
2016,02,25,06,55,2.30
2016,02,25,06,56,2.30
2016,02,25,06,57,2.30
2016,02,25,06,58,2.40
2016,02,25,06,59,2.40
2016,02,25,07,00,2.40
2016,02,25,07,01,2.40
2016,02,25,07,02,2.40
2016,02,25,07,03,2.40
2016,02,25,07,04,2.50
2016,02,25,07,05,2.50
2016,02,25,07,06,2.60
2016,02,25,07,07,2.60
2016,02,25,07,08,2.60
2016,02,25,07,09,2.70
2016,02,25,07,10,2.80
2016,02,25,07,11,2.80
2016,02,25,07,12,2.80
2016,02,25,07,13,2.80
2016,02,25,07,14,2.80
2016,02,25,07,15,2.90
2016,02,25,07,16,2.90
2016,02,25,07,17,2.90
2016,02,25,07,18,2.90
2016,02,25,07,19,2.90
2016,02,25,07,20,2.90
2016,02,25,07,21,2.80
2016,02,25,07,22,2.80
2016,02,25,07,23,2.80
2016,02,25,07,24,2.80
2016,02,25,07,25,2.80
2016,02,25,07,26,2.80
2016,02,25,07,27,2.80
2016,02,25,07,28,2.70
2016,02,25,07,29,2.80
2016,02,25,07,30,2.80
2016,02,25,07,31,2.80
2016,02,25,07,32,2.80
2016,02,25,07,33,2.90
2016,02,25,07,34,2.90
2016,02,25,07,35,2.90
2016,02,25,07,36,2.90
2016,02,25,07,37,2.80
2016,02,25,07,38,2.80
2016,02,25,07,39,2.90
2016,02,25,07,40,2.90
2016,02,25,07,41,3.00
2016,02,25,07,42,3.00
2016,02,25,07,43,3.10
2016,02,25,07,44,3.10
2016,02,25,07,45,3.20
2016,02,25,07,46,3.20
2016,02,25,07,47,3.30
2016,02,25,07,48,3.30
2016,02,25,07,49,3.40
2016,02,25,07,50,3.40
2016,02,25,07,51,3.50
2016,02,25,07,52,3.60
2016,02,25,07,53,3.60
2016,02,25,07,54,3.70
2016,02,25,07,55,3.70
2016,02,25,07,56,3.70
2016,02,25,07,57,3.80
2016,02,25,07,58,3.80
2016,02,25,07,59,3.90
2016,02,25,08,00,3.90
2016,02,25,08,01,3.90
2016,02,25,08,02,3.90
2016,02,25,08,03,3.90
2016,02,25,08,04,4.00
2016,02,25,08,05,4.00
2016,02,25,08,06,4.10
2016,02,25,08,07,4.10
2016,02,25,08,08,4.10
2016,02,25,08,09,4.20
2016,02,25,08,10,4.20
2016,02,25,08,11,4.20
2016,02,25,08,12,4.20
2016,02,25,08,13,4.10
2016,02,25,08,14,4.10
2016,02,25,08,15,4.10
2016,02,25,08,16,4.20
2016,02,25,08,17,4.20
2016,02,25,08,18,4.20
2016,02,25,08,19,4.20
2016,02,25,08,20,4.20
2016,02,25,08,21,4.20
2016,02,25,08,22,4.20
2016,02,25,08,23,4.20
2016,02,25,08,24,4.20
2016,02,25,08,25,4.30
2016,02,25,08,26,4.30
2016,02,25,08,27,4.30
2016,02,25,08,28,4.30
2016,02,25,08,29,4.30
2016,02,25,08,30,4.40
2016,02,25,08,31,4.40
2016,02,25,08,32,4.40
2016,02,25,08,33,4.40
2016,02,25,08,34,4.50
2016,02,25,08,35,4.50
2016,02,25,08,36,4.50
2016,02,25,08,37,4.50
2016,02,25,08,38,4.50
2016,02,25,08,39,4.50
2016,02,25,08,40,4.50
2016,02,25,08,41,4.50
2016,02,25,08,42,4.50
2016,02,25,08,43,4.50
2016,02,25,08,44,4.50
2016,02,25,08,45,4.50
2016,02,25,08,46,4.50
2016,02,25,08,47,4.50
2016,02,25,08,48,4.50
2016,02,25,08,49,4.60
2016,02,25,08,50,4.60
2016,02,25,08,51,4.60
2016,02,25,08,52,4.70
2016,02,25,08,53,4.70
2016,02,25,08,54,4.70
2016,02,25,08,55,4.80
2016,02,25,08,56,4.80
2016,02,25,08,57,4.80
2016,02,25,08,58,4.90
2016,02,25,08,59,4.90
2016,02,25,09,00,5.00
2016,02,25,09,01,5.10
2016,02,25,09,02,5.10
2016,02,25,09,03,5.20
2016,02,25,09,04,5.20
2016,02,25,09,05,5.20
2016,02,25,09,06,5.30
2016,02,25,09,07,5.30
2016,02,25,09,08,5.30
2016,02,25,09,09,5.30
2016,02,25,09,10,5.30
2016,02,25,09,11,5.40
2016,02,25,09,12,5.40
2016,02,25,09,13,5.40
2016,02,25,09,14,5.50
2016,02,25,09,15,5.50
2016,02,25,09,16,5.60
2016,02,25,09,17,5.60
2016,02,25,09,18,5.70
2016,02,25,09,19,5.70
2016,02,25,09,20,5.80
2016,02,25,09,21,5.80
2016,02,25,09,22,5.90
2016,02,25,09,23,6.00
2016,02,25,09,24,6.00
2016,02,25,09,25,6.20
2016,02,25,09,26,6.30
2016,02,25,09,27,6.40
2016,02,25,09,28,6.50
2016,02,25,09,29,6.60
2016,02,25,09,30,6.70
2016,02,25,09,31,6.80
2016,02,25,09,32,7.00
2016,02,25,09,33,7.00
2016,02,25,09,34,7.20
2016,02,25,09,35,7.30
2016,02,25,09,36,7.50
2016,02,25,09,37,7.60
2016,02,25,09,38,7.70
2016,02,25,09,39,7.70
2016,02,25,09,40,7.80
2016,02,25,09,41,7.80
2016,02,25,09,42,7.80
2016,02,25,09,43,7.90
2016,02,25,09,44,8.00
2016,02,25,09,45,8.10
2016,02,25,09,46,8.20
2016,02,25,09,47,8.30
2016,02,25,09,48,8.40
2016,02,25,09,49,8.60
2016,02,25,09,50,8.70
2016,02,25,09,51,8.80
2016,02,25,09,52,8.90
2016,02,25,09,53,9.00
2016,02,25,09,54,9.10
2016,02,25,09,55,9.20
2016,02,25,09,56,9.30
2016,02,25,09,57,9.30
2016,02,25,09,58,9.40
2016,02,25,09,59,9.50
2016,02,25,10,00,9.60
2016,02,25,10,01,9.60
2016,02,25,10,02,9.70
2016,02,25,10,03,9.70
2016,02,25,10,04,9.80
2016,02,25,10,05,9.80
2016,02,25,10,06,9.90
2016,02,25,10,07,10.00
2016,02,25,10,08,10.10
2016,02,25,10,09,10.20
2016,02,25,10,10,10.20
2016,02,25,10,11,10.30
2016,02,25,10,12,10.30
2016,02,25,10,13,10.40
2016,02,25,10,14,10.50
2016,02,25,10,15,10.60
2016,02,25,10,16,10.70
2016,02,25,10,17,10.80
2016,02,25,10,18,10.80
2016,02,25,10,19,10.90
2016,02,25,10,20,11.00
2016,02,25,10,21,11.10
2016,02,25,10,22,11.20
2016,02,25,10,23,11.40
2016,02,25,10,24,11.50
2016,02,25,10,25,11.60
2016,02,25,10,26,11.70
2016,02,25,10,27,11.80
2016,02,25,10,28,11.90
2016,02,25,10,29,12.00
2016,02,25,10,30,12.10
2016,02,25,10,31,12.00
2016,02,25,10,32,12.00
2016,02,25,10,33,11.90
2016,02,25,10,34,12.00
2016,02,25,10,35,12.10
2016,02,25,10,36,12.10
2016,02,25,10,37,12.00
2016,02,25,10,38,12.00
2016,02,25,10,39,11.90
2016,02,25,10,40,11.90
2016,02,25,10,41,11.90
2016,02,25,10,42,12.00
2016,02,25,10,43,12.10
2016,02,25,10,44,12.30
2016,02,25,10,45,12.40
2016,02,25,10,46,12.60
2016,02,25,10,47,12.70
2016,02,25,10,48,12.80
2016,02,25,10,49,12.90
2016,02,25,10,50,13.00
2016,02,25,10,51,12.90
2016,02,25,10,52,12.80
2016,02,25,10,53,12.80
2016,02,25,10,54,12.70
2016,02,25,10,55,12.70
2016,02,25,10,56,12.60
2016,02,25,10,57,12.50
2016,02,25,10,58,12.50
2016,02,25,10,59,12.40
2016,02,25,11,00,12.40
2016,02,25,11,01,12.30
2016,02,25,11,02,12.20
2016,02,25,11,03,12.20
2016,02,25,11,04,12.10
2016,02,25,11,05,12.00
2016,02,25,11,06,11.80
2016,02,25,11,07,11.60
2016,02,25,11,08,11.50
2016,02,25,11,09,11.50
2016,02,25,11,10,11.50
2016,02,25,11,11,11.50
2016,02,25,11,12,11.50
2016,02,25,11,13,11.60
2016,02,25,11,14,11.60
2016,02,25,11,15,11.70
2016,02,25,11,16,11.90
2016,02,25,11,17,12.00
2016,02,25,11,18,12.00
2016,02,25,11,19,12.10
2016,02,25,11,20,12.20
2016,02,25,11,21,12.20
2016,02,25,11,22,12.30
2016,02,25,11,23,12.30
2016,02,25,11,24,12.20
2016,02,25,11,25,12.20
2016,02,25,11,26,12.20
2016,02,25,11,27,12.20
2016,02,25,11,28,12.30
2016,02,25,11,29,12.30
2016,02,25,11,30,12.40
2016,02,25,11,31,12.40
2016,02,25,11,32,12.40
2016,02,25,11,33,12.40
2016,02,25,11,34,12.50
2016,02,25,11,35,12.50
2016,02,25,11,36,12.70
2016,02,25,11,37,12.80
2016,02,25,11,38,12.90
2016,02,25,11,39,13.10
2016,02,25,11,40,13.20
2016,02,25,11,41,13.30
2016,02,25,11,42,13.40
2016,02,25,11,43,13.40
2016,02,25,11,44,13.30
2016,02,25,11,45,13.30
2016,02,25,11,46,13.30
2016,02,25,11,47,13.30
2016,02,25,11,48,13.30
2016,02,25,11,49,13.50
2016,02,25,11,50,13.60
2016,02,25,11,51,13.70
2016,02,25,11,52,13.70
2016,02,25,11,53,13.80
2016,02,25,11,54,13.90
2016,02,25,11,55,14.00
2016,02,25,11,56,14.10
2016,02,25,11,57,14.00
2016,02,25,11,58,13.90
2016,02,25,11,59,13.80
2016,02,25,12,00,13.80
2016,02,25,12,01,13.80
2016,02,25,12,02,13.90
2016,02,25,12,03,13.90
2016,02,25,12,04,13.90
2016,02,25,12,05,13.90
2016,02,25,12,06,13.80
2016,02,25,12,07,13.60
2016,02,25,12,08,13.60
2016,02,25,12,09,13.60
2016,02,25,12,10,13.60
2016,02,25,12,11,13.70
2016,02,25,12,12,13.70
2016,02,25,12,13,13.60
2016,02,25,12,14,13.60
2016,02,25,12,15,13.60
2016,02,25,12,16,13.60
2016,02,25,12,17,13.60
2016,02,25,12,18,13.50
2016,02,25,12,19,13.60
2016,02,25,12,20,13.60
2016,02,25,12,21,13.60
2016,02,25,12,22,13.70
2016,02,25,12,23,13.60
2016,02,25,12,24,13.60
2016,02,25,12,25,13.70
2016,02,25,12,26,13.60
2016,02,25,12,27,13.60
2016,02,25,12,28,13.60
2016,02,25,12,29,13.60
2016,02,25,12,30,13.70
2016,02,25,12,31,13.70
2016,02,25,12,32,13.70
2016,02,25,12,33,13.70
2016,02,25,12,34,13.70
2016,02,25,12,35,13.70
2016,02,25,12,36,13.70
2016,02,25,12,37,13.70
2016,02,25,12,38,13.70
2016,02,25,12,39,13.70
2016,02,25,12,40,13.80
2016,02,25,12,41,13.80
2016,02,25,12,42,13.80
2016,02,25,12,43,13.80
2016,02,25,12,44,13.80
2016,02,25,12,45,13.70
2016,02,25,12,46,13.70
2016,02,25,12,47,13.80
2016,02,25,12,48,13.80
2016,02,25,12,49,13.80
2016,02,25,12,50,13.80
2016,02,25,12,51,13.80
2016,02,25,12,52,13.80
2016,02,25,12,53,13.80
2016,02,25,12,54,13.90
2016,02,25,12,55,13.90
2016,02,25,12,56,13.90
2016,02,25,12,57,13.90
2016,02,25,12,58,13.80
2016,02,25,12,59,13.80
2016,02,25,13,00,13.80
2016,02,25,13,01,13.90
2016,02,25,13,02,14.00
2016,02,25,13,03,14.00
2016,02,25,13,04,13.90
2016,02,25,13,05,13.90
2016,02,25,13,06,14.00
2016,02,25,13,07,13.90
2016,02,25,13,08,13.90
2016,02,25,13,09,14.00
2016,02,25,13,10,14.00
2016,02,25,13,11,14.20
2016,02,25,13,12,14.20
2016,02,25,13,13,14.30
2016,02,25,13,14,14.40
2016,02,25,13,15,14.40
2016,02,25,13,16,14.40
2016,02,25,13,17,14.40
2016,02,25,13,18,14.40
2016,02,25,13,19,14.40
2016,02,25,13,20,14.50
2016,02,25,13,21,14.30
2016,02,25,13,22,14.10
2016,02,25,13,23,14.10
2016,02,25,13,24,14.00
2016,02,25,13,25,13.90
2016,02,25,13,26,13.80
2016,02,25,13,27,13.70
2016,02,25,13,28,13.60
2016,02,25,13,29,13.60
2016,02,25,13,30,13.60
2016,02,25,13,31,13.60
2016,02,25,13,32,13.60
2016,02,25,13,33,13.60
2016,02,25,13,34,13.60
2016,02,25,13,35,13.60
2016,02,25,13,36,13.60
2016,02,25,13,37,13.60
2016,02,25,13,38,13.70
2016,02,25,13,39,13.70
2016,02,25,13,40,13.70
2016,02,25,13,41,13.70
2016,02,25,13,42,13.70
2016,02,25,13,43,13.70
2016,02,25,13,44,13.80
2016,02,25,13,45,13.80
2016,02,25,13,46,13.80
2016,02,25,13,47,13.80
2016,02,25,13,48,13.70
2016,02,25,13,49,13.60
2016,02,25,13,50,13.50
2016,02,25,13,51,13.40
2016,02,25,13,52,13.30
2016,02,25,13,53,13.30
2016,02,25,13,54,13.30
2016,02,25,13,55,13.30
2016,02,25,13,56,13.30
2016,02,25,13,57,13.30
2016,02,25,13,58,13.30
2016,02,25,13,59,13.40
2016,02,25,14,00,13.40
2016,02,25,14,01,13.40
2016,02,25,14,02,13.50
2016,02,25,14,03,13.50
2016,02,25,14,04,13.50
2016,02,25,14,05,13.40
2016,02,25,14,06,13.40
2016,02,25,14,07,13.50
2016,02,25,14,08,13.40
2016,02,25,14,09,13.40
2016,02,25,14,10,13.40
2016,02,25,14,11,13.50
2016,02,25,14,12,13.50
2016,02,25,14,13,13.50
2016,02,25,14,14,13.50
2016,02,25,14,15,13.40
2016,02,25,14,16,13.40
2016,02,25,14,17,13.40
2016,02,25,14,18,13.40
2016,02,25,14,19,13.40
2016,02,25,14,20,13.40
2016,02,25,14,21,13.30
2016,02,25,14,22,13.30
2016,02,25,14,23,13.30
2016,02,25,14,24,13.30
2016,02,25,14,25,13.20
2016,02,25,14,26,13.20
2016,02,25,14,27,13.20
2016,02,25,14,28,13.20
2016,02,25,14,29,13.20
2016,02,25,14,30,13.10
2016,02,25,14,31,13.10
2016,02,25,14,32,13.10
2016,02,25,14,33,13.00
2016,02,25,14,34,13.00
2016,02,25,14,35,13.00
2016,02,25,14,36,13.00
2016,02,25,14,37,13.00
2016,02,25,14,38,13.00
2016,02,25,14,39,13.00
2016,02,25,14,40,13.00
2016,02,25,14,41,12.90
2016,02,25,14,42,12.90
2016,02,25,14,43,12.90
2016,02,25,14,44,13.00
2016,02,25,14,45,13.00
2016,02,25,14,46,13.00
2016,02,25,14,47,13.00
2016,02,25,14,48,13.00
2016,02,25,14,49,13.00
2016,02,25,14,50,13.00
2016,02,25,14,51,13.00
2016,02,25,14,52,13.00
2016,02,25,14,53,12.90
2016,02,25,14,54,12.90
2016,02,25,14,55,12.90
2016,02,25,14,56,12.90
2016,02,25,14,57,13.00
2016,02,25,14,58,13.00
2016,02,25,14,59,13.00
2016,02,25,15,00,13.00
2016,02,25,15,01,13.10
2016,02,25,15,02,13.10
2016,02,25,15,03,13.10
2016,02,25,15,04,13.10
2016,02,25,15,05,13.10
2016,02,25,15,06,13.10
2016,02,25,15,07,13.10
2016,02,25,15,08,13.10
2016,02,25,15,09,13.10
2016,02,25,15,10,13.10
2016,02,25,15,11,13.10
2016,02,25,15,12,13.20
2016,02,25,15,13,13.20
2016,02,25,15,14,13.20
2016,02,25,15,15,13.20
2016,02,25,15,16,13.20
2016,02,25,15,17,13.20
2016,02,25,15,18,13.20
2016,02,25,15,19,13.20
2016,02,25,15,20,13.20
2016,02,25,15,21,13.20
2016,02,25,15,22,13.20
2016,02,25,15,23,13.10
2016,02,25,15,24,13.10
2016,02,25,15,25,13.10
2016,02,25,15,26,13.10
2016,02,25,15,27,13.20
2016,02,25,15,28,13.20
2016,02,25,15,29,13.20
2016,02,25,15,30,13.20
2016,02,25,15,31,13.20
2016,02,25,15,32,13.20
2016,02,25,15,33,13.10
2016,02,25,15,34,13.10
2016,02,25,15,35,13.10
2016,02,25,15,36,13.10
2016,02,25,15,37,13.10
2016,02,25,15,38,13.10
2016,02,25,15,39,13.00
2016,02,25,15,40,13.00
2016,02,25,15,41,13.00
2016,02,25,15,42,12.90
2016,02,25,15,43,13.00
2016,02,25,15,44,13.00
2016,02,25,15,45,13.00
2016,02,25,15,46,13.10
2016,02,25,15,47,13.10
2016,02,25,15,48,13.10
2016,02,25,15,49,13.10
2016,02,25,15,50,13.10
2016,02,25,15,51,13.10
2016,02,25,15,52,13.00
2016,02,25,15,53,13.00
2016,02,25,15,54,13.00
2016,02,25,15,55,13.00
2016,02,25,15,56,13.10
2016,02,25,15,57,13.10
2016,02,25,15,58,13.10
2016,02,25,15,59,13.10
2016,02,25,16,00,13.10
2016,02,25,16,01,13.10
2016,02,25,16,02,13.10
2016,02,25,16,03,13.10
2016,02,25,16,04,13.10
2016,02,25,16,05,13.10
2016,02,25,16,06,13.10
2016,02,25,16,07,13.00
2016,02,25,16,08,13.00
2016,02,25,16,09,13.00
2016,02,25,16,10,13.00
2016,02,25,16,11,13.00
2016,02,25,16,12,13.00
2016,02,25,16,13,13.00
2016,02,25,16,14,13.00
2016,02,25,16,15,13.10
2016,02,25,16,16,13.10
2016,02,25,16,17,13.10
2016,02,25,16,18,13.10
2016,02,25,16,19,13.10
2016,02,25,16,20,13.10
2016,02,25,16,21,13.10
2016,02,25,16,22,13.10
2016,02,25,16,23,13.00
2016,02,25,16,24,13.00
2016,02,25,16,25,13.00
2016,02,25,16,26,13.00
2016,02,25,16,27,13.00
2016,02,25,16,28,13.00
2016,02,25,16,29,13.00
2016,02,25,16,30,13.00
2016,02,25,16,31,13.00
2016,02,25,16,32,13.00
2016,02,25,16,33,13.00
2016,02,25,16,34,13.00
2016,02,25,16,35,13.00
2016,02,25,16,36,13.00
2016,02,25,16,37,13.00
2016,02,25,16,38,13.00
2016,02,25,16,39,13.00
2016,02,25,16,40,12.90
2016,02,25,16,41,12.90
2016,02,25,16,42,12.80
2016,02,25,16,43,12.80
2016,02,25,16,44,12.80
2016,02,25,16,45,12.70
2016,02,25,16,46,12.70
2016,02,25,16,47,12.70
2016,02,25,16,48,12.70
2016,02,25,16,49,12.70
2016,02,25,16,50,12.60
2016,02,25,16,51,12.60
2016,02,25,16,52,12.60
2016,02,25,16,53,12.50
2016,02,25,16,54,12.40
2016,02,25,16,55,12.40
2016,02,25,16,56,12.30
2016,02,25,16,57,12.30
2016,02,25,16,58,12.30
2016,02,25,16,59,12.20
2016,02,25,17,00,12.20
2016,02,25,17,01,12.20
2016,02,25,17,02,12.10
2016,02,25,17,03,12.10
2016,02,25,17,04,12.10
2016,02,25,17,05,12.00
2016,02,25,17,06,12.00
2016,02,25,17,07,11.90
2016,02,25,17,08,11.90
2016,02,25,17,09,11.90
2016,02,25,17,10,11.90
2016,02,25,17,11,11.80
2016,02,25,17,12,11.80
2016,02,25,17,13,11.80
2016,02,25,17,14,11.80
2016,02,25,17,15,11.80
2016,02,25,17,16,11.80
2016,02,25,17,17,11.80
2016,02,25,17,18,11.70
2016,02,25,17,19,11.70
2016,02,25,17,20,11.70
2016,02,25,17,21,11.60
2016,02,25,17,22,11.60
2016,02,25,17,23,11.50
2016,02,25,17,24,11.50
2016,02,25,17,25,11.40
2016,02,25,17,26,11.30
2016,02,25,17,27,11.30
2016,02,25,17,28,11.20
2016,02,25,17,29,11.20
2016,02,25,17,30,11.20
2016,02,25,17,31,11.10
2016,02,25,17,32,11.10
2016,02,25,17,33,11.00
2016,02,25,17,34,10.90
2016,02,25,17,35,10.90
2016,02,25,17,36,10.90
2016,02,25,17,37,10.80
2016,02,25,17,38,10.80
2016,02,25,17,39,10.80
2016,02,25,17,40,10.80
2016,02,25,17,41,10.70
2016,02,25,17,42,10.70
2016,02,25,17,43,10.70
2016,02,25,17,44,10.60
2016,02,25,17,45,10.60